Las Vegas, NV

2:01 PM PDT on July 28, 2016 (GMT -0700)
Nellis AFB

Weather History for KLSV - July, 2013

Change the Weather History Date:

Friday, July 5, 2013

  Actual Average Record
Temperature  
Mean Temperature 97 °F -  
Max Temperature 107 °F 102 °F 114 °F (2007)
Min Temperature 88 °F 75 °F 71 °F (2012)
Cooling Degree Days 32    
Growing Degree Days 47 (Base 50)    
Moisture  
Dew Point 52 °F    
Average Humidity 22    
Maximum Humidity 33    
Minimum Humidity 14    
Precipitation  
Precipitation 0.00 in - - ()
Sea Level Pressure  
Sea Level Pressure 29.59 in    
Wind  
Wind Speed 12 mph (SE)    
Max Wind Speed 24 mph    
Max Gust Speed 32 mph    
Visibility 10 miles    
Events      
Averages and records for this station are not official NWS values.
T = Trace of Precipitation, MM = Missing Value Source: NWS Daily Summary

Daily Weather History Graph

Daily Weather History Graph

Search for Another Location

Airport or City:

Trip Planner

Search our weather history database for the weather conditions in past years. The results will help you decide how hot, cold, wet, or windy it might be!

Date:

Astronomy

Jul. 05, 2013 Rise Set
Actual Time 5:28 AM PDT 8:00 PM PDT
Civil Twilight 4:58 AM PDT 8:30 PM PDT
Nautical Twilight 4:21 AM PDT 9:08 PM PDT
Astronomical Twilight 3:39 AM PDT 9:49 PM PDT
Moon 3:29 AM PDT (7/5) 6:00 PM PDT (7/5)
Length of Visible Light 15h 32m
Length of Day
14h 32m
Waning Crescent, 6% of the Moon is Illuminated
Jul 5
Waning Crescent
Jul 8
New
Jul 15
First Quarter
Jul 22
Full
Jul 29
Last Quarter

Hourly Weather History & Observations

Time (PDT) Temp. Heat Index Dew Point Humidity Pressure Visibility Wind Dir Wind Speed Gust Speed Precip Events Conditions
12:58 AM 95.5 °F 93.4 °F 54.0 °F 25% 29.57 in 10.0 mi NE 10.4 mph - N/A   Clear
1:58 AM 94.5 °F 92.6 °F 55.2 °F 27% 29.58 in 10.0 mi ENE 10.4 mph - N/A   Clear
2:58 AM 95.5 °F 93.4 °F 54.0 °F 25% 29.59 in 10.0 mi Variable 5.8 mph - N/A   Clear
3:58 AM 90.1 °F 88.6 °F 56.7 °F 32% 29.60 in 10.0 mi ENE 11.5 mph - N/A   Clear
4:58 AM 89.4 °F 87.9 °F 56.7 °F 33% 29.60 in 10.0 mi NE 4.6 mph - N/A   Clear
5:58 AM 88.9 °F 87.3 °F 56.5 °F 33% 29.62 in 10.0 mi NE 1.2 mph - N/A   Clear
6:58 AM 91.0 °F 89.7 °F 57.4 °F 32% 29.64 in 10.0 mi Calm Calm - N/A   Clear
7:58 AM 93.0 °F 91.7 °F 57.2 °F 30% 29.65 in 10.0 mi SE 8.1 mph - N/A   Clear
8:58 AM 95.0 °F 93.7 °F 56.7 °F 28% 29.66 in 10.0 mi SE 10.4 mph - N/A   Clear
9:58 AM 96.8 °F 95.8 °F 57.2 °F 27% 29.65 in 10.0 mi ESE 11.5 mph - N/A   Clear
10:58 AM 99.5 °F 98.4 °F 56.5 °F 24% 29.64 in 10.0 mi ESE 9.2 mph - N/A   Clear
11:58 AM 103.3 °F - 52.7 °F 18% 29.63 in 10.0 mi SSE 10.4 mph - N/A   Clear
12:58 PM 105.8 °F 103.7 °F 53.2 °F 17% 29.61 in 10.0 mi SSE 16.1 mph 23.0 mph N/A   Clear
1:03 PM 105.8 °F 104.3 °F 53.6 °F 18% 29.69 in 10.0 mi ESE 16.1 mph 24.2 mph N/A   Clear
1:58 PM 106.0 °F - 51.8 °F 16% 29.57 in 10.0 mi SSE 21.9 mph 26.5 mph N/A   Clear
2:58 PM 106.5 °F 104.6 °F 53.6 °F 17% 29.55 in 10.0 mi SE 20.7 mph 27.6 mph N/A   Clear
3:58 PM 105.6 °F - 52.9 °F 17% 29.52 in 10.0 mi SSE 24.2 mph 32.2 mph N/A   Partly Cloudy
4:58 PM 104.9 °F - 51.3 °F 17% 29.51 in 10.0 mi SSE 24.2 mph 31.1 mph N/A   Clear
5:58 PM 104.7 °F - 50.7 °F 16% 29.51 in 10.0 mi SE 20.7 mph - N/A   Clear
6:58 PM 103.3 °F - 48.2 °F 16% 29.52 in 10.0 mi SSE 17.3 mph - N/A   Clear
7:58 PM 101.3 °F - 44.4 °F 14% 29.53 in 10.0 mi SSE 23.0 mph 27.6 mph N/A   Scattered Clouds
8:58 PM 100.2 °F - 43.5 °F 14% 29.55 in 10.0 mi SSE 17.3 mph 26.5 mph N/A   Mostly Cloudy
9:58 PM 99.0 °F - 44.2 °F 15% 29.57 in 10.0 mi South 17.3 mph - N/A   Clear
10:58 PM 96.8 °F - 45.9 °F 17% 29.58 in 10.0 mi SSE 12.7 mph - N/A   Clear
11:58 PM 96.6 °F - 47.3 °F 19% 29.59 in 10.0 mi South 12.7 mph - N/A   Clear